Theta_e
310 311 311 311 312 312 313 315 318 318 319 320 321 322 323 323 323 324 324 324 325 325 324 325 325 325 326 326 321 320 320 321 323 323 322 326 328 336 340 342 336 338 337 337
310 311 311 311 310 311 312 314 316 318 317 319 320 322 322 323 323 323 324 324 324 324 324 324 324 325 325 326 326 321 321 321 322 321 321 331 339 341 342 341 335 335 337 338
310 310 310 310 310 310 310 312 313 315 317 318 319 321 322 322 322 322 322 322 322 322 322 322 323 323 324 324 324 322 320 320 320 320 321 323 336 331 330 332 339 337 336 338
310 310 310 310 310 311 310 310 311 313 316 318 319 321 321 321 322 322 321 321 321 321 321 321 322 322 323 324 325 325 319 319 319 319 320 324 336 336 332 337 333 336 339 340
310 310 311 311 311 310 310 310 310 313 314 317 317 319 319 321 321 322 322 321 320 320 320 320 320 320 321 321 322 323 322 317 318 319 321 328 339 343 343 344 337 340 341 340
311 311 312 312 312 312 310 310 310 311 314 316 317 318 319 320 320 321 321 320 319 319 319 319 320 320 320 321 323 323 319 318 319 319 324 331 343 344 344 344 340 342 342 340
312 312 313 312 313 312 310 309 311 312 313 314 315 316 318 319 319 319 320 319 319 320 321 320 322 322 322 324 326 332 331 331 322 325 328 333 340 338 343 343 345 345 345 344
314 313 311 311 314 312 310 310 311 312 313 313 313 315 317 317 318 317 317 319 319 321 324 325 326 324 323 324 331 330 340 342 335 336 340 340 338 346 347 346 345 344 342 339
312 311 311 312 313 313 312 311 311 311 312 315 313 314 315 316 318 318 319 319 323 324 327 331 331 330 330 332 337 339 343 344 345 345 342 342 347 347 345 344 342 338 337 337
310 313 311 311 311 312 311 311 311 311 315 314 314 315 315 317 317 317 321 321 320 323 331 333 334 337 337 338 339 344 345 345 345 345 345 345 344 342 341 337 337 337 337 337
310 311 311 311 312 311 312 311 314 313 314 313 314 315 317 319 320 320 320 319 320 328 335 336 338 339 342 343 344 345 345 345 345 344 344 343 342 340 337 337 337 334 332 333
311 312 312 311 311 311 311 312 313 317 314 314 315 317 319 320 319 319 319 318 319 326 335 336 337 339 344 344 344 345 345 344 344 343 342 340 338 337 338 337 336 334 333 332
311 312 312 310 313 312 311 310 311 313 315 318 315 315 319 318 317 317 318 318 318 319 331 337 337 341 344 344 344 344 343 342 340 339 338 337 337 337 336 335 333 333 332 331
309 312 311 313 311 310 310 311 311 312 314 313 313 315 316 317 317 317 317 317 317 317 326 337 337 341 343 343 342 342 340 339 337 336 336 336 335 334 334 333 333 332 331 331
310 313 311 311 311 310 310 310 310 311 312 313 313 314 315 316 316 317 316 315 316 317 323 337 337 339 340 341 340 339 337 336 335 333 332 332 333 334 334 333 333 331 331 332
311 314 312 312 311 311 311 311 311 310 311 312 312 313 313 313 312 313 313 315 316 318 321 336 337 338 340 339 338 337 335 334 331 331 331 333 333 333 333 332 331 331 331 331
311 311 312 312 310 311 311 310 311 311 311 311 312 314 314 314 314 314 313 314 317 319 322 336 337 339 339 338 337 335 334 330 330 331 333 333 333 333 331 330 330 330 331 331
311 311 312 313 312 314 310 312 313 314 314 314 315 315 315 315 313 313 313 315 318 320 323 337 338 339 338 338 336 335 331 329 330 332 332 333 333 331 330 329 330 331 326 329
307 310 312 312 313 311 311 311 312 314 315 313 315 316 317 315 313 314 314 315 320 321 329 337 340 339 338 336 335 333 328 329 331 331 332 333 331 331 330 330 330 326 326 330
310 308 313 313 315 314 314 313 311 310 316 317 318 319 318 316 315 316 317 328 330 332 336 338 339 339 337 335 334 329 330 330 331 332 332 332 331 331 331 330 330 330 329 331
314 312 312 312 315 313 312 310 308 316 317 311 312 313 315 320 318 318 320 324 327 334 337 339 339 337 336 335 332 328 330 331 332 333 332 331 331 331 330 331 330 330 330 330
315 316 317 317 316 318 310 307 313 312 308 308 310 312 316 319 319 319 320 324 327 334 337 339 338 336 335 334 329 327 331 332 333 333 331 331 331 330 330 331 331 331 331 331
316 313 313 312 315 311 310 307 305 306 306 308 312 314 317 318 320 321 323 325 329 335 337 338 337 336 334 331 327 329 332 332 332 332 332 332 332 332 332 332 330 330 329 330
312 312 311 310 312 311 311 309 309 309 310 311 315 316 318 320 322 323 325 329 333 335 337 338 337 335 333 328 328 331 332 332 333 332 332 333 332 332 332 332 332 332 332 332
312 312 310 311 311 311 309 309 308 310 312 315 318 320 322 322 324 326 328 331 333 335 337 337 336 333 330 328 328 331 332 332 332 332 333 333 332 333 332 333 332 332 331 332
312 312 313 313 311 311 310 310 309 310 312 314 316 318 320 322 325 329 331 333 334 335 337 337 334 330 328 327 328 331 331 332 332 333 333 332 331 332 332 332 329 328 329 328
Wind_Speed
13 12 14 15 18 24 25 28 24 20 20 25 25 31 33 31 38 37 36 31 32 32 32 30 28 26 25 25 31 31 31 31 30 26 22 19 22 21 19 18 21 21 18 18
12 16 17 17 16 20 21 24 29 24 13 18 24 31 31 27 29 36 36 36 35 34 33 32 31 28 27 28 28 31 28 27 29 23 22 17 16 16 17 18 20 17 16 17
16 17 16 10 13 18 22 25 24 27 22 19 21 28 28 26 26 29 31 33 35 36 35 35 34 33 31 31 31 28 26 21 22 23 21 21 15 20 20 15 14 16 16 18
15 10 10 15 20 18 21 21 25 24 22 24 20 22 23 24 28 29 36 38 38 36 37 37 36 35 33 31 28 27 31 30 27 27 22 20 17 15 15 13 15 17 16 16
19 20 18 16 18 20 22 19 21 21 22 24 29 19 22 18 22 22 20 29 33 33 35 34 31 30 28 26 27 28 30 31 27 28 22 20 16 12 11 14 14 17 17 18
19 19 18 19 19 23 20 22 20 22 19 20 25 21 19 21 25 23 19 26 26 28 28 22 20 23 24 20 18 19 22 25 26 23 19 19 17 16 16 17 19 19 19 18
18 5 10 17 23 21 18 17 12 15 18 22 23 20 19 6 8 4 6 8 13 14 17 18 16 17 19 16 15 14 16 17 19 17 18 18 17 16 17 18 19 19 19 17
8 8 10 4 10 17 19 19 14 19 16 20 27 27 21 22 26 24 22 11 9 10 13 15 17 13 15 14 14 13 13 15 16 18 18 18 18 17 17 18 19 17 16 16
12 9 8 8 13 15 20 18 20 23 21 16 17 26 26 21 13 8 8 5 7 13 15 16 15 11 10 12 13 13 15 17 18 20 21 21 20 20 20 20 19 18 18 16
9 11 5 2 7 14 15 16 13 13 8 18 15 20 15 24 23 17 4 5 11 16 17 11 6 6 9 12 12 16 17 20 21 21 21 21 22 21 22 22 19 17 16 15
15 7 11 12 7 6 10 13 13 7 13 13 11 14 20 9 12 9 6 11 17 18 15 8 4 3 9 14 17 20 21 23 23 22 22 22 21 21 21 19 17 15 14 12
12 6 12 15 9 8 5 10 5 7 12 16 13 4 12 18 13 6 10 16 19 20 17 7 1 9 15 19 21 22 23 23 22 22 22 22 21 20 19 17 15 13 12 11
8 4 9 7 5 5 7 13 13 14 14 13 14 7 14 10 3 9 14 19 20 22 18 7 4 9 17 20 21 22 23 23 23 23 23 22 20 18 17 15 14 13 13 13
7 11 13 13 18 13 11 11 12 14 11 16 17 24 10 13 13 15 17 20 21 22 15 5 3 7 16 19 21 22 22 23 24 23 21 20 17 16 15 14 15 14 14 13
5 10 17 18 20 18 19 19 18 19 19 20 19 22 19 19 18 18 23 27 22 20 17 2 5 7 15 19 22 22 23 23 22 20 19 18 17 16 15 14 15 14 14 12
5 7 13 17 16 17 20 21 21 22 22 21 23 27 24 27 30 25 28 24 20 17 16 0 9 11 16 20 22 23 23 22 20 19 18 17 16 14 14 15 16 16 13 11
4 7 8 14 14 12 15 17 19 18 20 18 21 24 21 23 22 19 25 22 21 19 16 4 13 14 18 21 23 24 23 21 20 19 18 16 14 13 13 15 16 14 12 11
5 11 8 7 9 10 12 3 11 10 12 17 19 22 24 22 24 21 22 21 21 20 16 7 16 19 19 22 23 22 21 20 20 18 16 14 12 13 15 17 15 13 12 11
10 5 4 4 9 15 18 5 6 8 17 19 23 20 21 21 20 20 18 19 22 20 13 10 19 21 22 24 24 22 21 21 19 17 15 13 12 15 16 15 14 15 13 10
1 8 4 4 5 5 2 4 5 7 15 13 10 14 15 11 11 10 6 6 14 9 9 15 21 23 26 26 25 23 23 21 18 16 14 12 13 15 15 14 14 13 13 10
4 2 10 14 7 7 1 9 9 5 5 20 18 18 20 12 9 12 15 17 15 12 7 18 22 25 27 27 26 25 23 21 17 15 13 13 15 15 16 14 13 13 13 11
3 4 2 3 5 3 9 10 5 10 27 22 22 20 19 21 17 17 19 20 17 12 12 20 23 25 26 26 25 25 23 20 17 15 15 15 15 14 15 14 12 12 12 11
2 3 3 3 4 15 21 10 25 26 27 31 24 22 20 20 19 17 17 18 16 8 15 20 24 25 25 25 24 25 24 21 18 18 16 16 15 13 12 12 12 11 12 11
6 9 2 4 4 15 22 15 16 19 28 34 26 23 20 18 16 16 14 13 9 6 15 22 24 25 25 24 24 25 24 21 18 18 17 16 14 12 10 8 9 10 10 10
7 7 4 7 13 18 2 19 22 26 26 10 5 6 7 10 12 11 12 9 7 8 17 23 24 24 25 25 24 25 24 21 20 20 17 15 12 10 9 7 7 5 8 9
4 8 3 3 17 12 9 22 22 27 25 12 8 4 5 7 8 11 8 5 6 11 20 23 24 24 25 25 24 24 23 22 21 20 17 15 12 9 8 8 8 9 9 10
Wind_Direction
269 264 255 262 258 257 266 269 268 261 270 253 243 244 251 246 251 257 258 255 258 264 270 272 272 271 267 265 273 271 268 262 256 264 263 260 253 240 234 222 230 225 216 213
269 250 266 279 279 273 264 260 258 259 275 269 242 251 251 248 250 253 255 256 262 265 266 269 269 268 267 266 267 273 267 263 262 260 261 248 237 227 221 218 231 217 208 213
278 287 297 269 259 254 254 254 258 254 253 237 252 254 253 252 254 255 258 258 260 264 267 267 267 266 266 264 265 265 262 263 259 261 258 254 224 224 228 222 206 203 209 213
287 297 289 268 262 257 267 259 254 258 251 245 230 258 249 242 245 245 251 253 258 262 263 266 268 269 267 265 261 258 262 256 259 262 252 244 219 214 220 200 205 204 201 190
271 287 291 271 269 263 262 262 255 246 251 250 242 253 260 255 255 257 257 256 256 262 260 261 264 265 265 261 255 251 250 254 253 253 240 229 193 193 181 167 190 184 177 173
269 276 258 273 281 265 259 257 246 248 249 239 237 238 252 252 256 255 254 256 252 257 261 263 271 272 249 249 248 238 239 235 234 236 225 206 187 180 169 170 165 165 164 163
312 339 348 321 256 245 234 243 240 228 226 241 237 234 238 266 111 332 230 285 266 252 261 269 271 263 242 239 230 228 223 214 215 211 203 187 185 178 171 161 156 158 159 165
344 319 0 324 287 250 222 234 235 242 235 232 227 236 227 235 263 272 251 257 279 276 283 278 278 258 241 229 218 219 195 184 182 177 168 167 165 156 154 151 156 160 162 163
314 306 281 343 298 277 227 248 261 268 285 280 232 211 248 255 232 235 212 274 325 321 320 297 279 255 231 205 195 181 173 162 158 154 155 151 147 143 149 148 145 150 157 167
312 300 324 294 304 256 254 227 248 240 265 259 239 198 218 210 217 252 115 1 346 345 336 314 273 236 199 195 174 162 157 151 147 144 143 143 143 148 151 148 147 148 154 158
308 274 288 287 233 254 272 239 208 212 287 281 243 210 207 200 105 105 58 12 5 356 351 330 296 182 161 149 149 146 146 143 140 137 139 137 138 143 145 145 147 155 164 167
327 290 286 290 278 225 175 245 342 267 232 249 273 321 107 119 133 82 16 9 3 3 5 356 59 135 143 143 141 141 140 139 138 137 135 135 137 141 143 145 149 160 163 154
353 269 301 288 209 201 217 244 243 244 273 260 270 244 158 183 179 9 1 353 347 352 13 12 98 141 146 143 141 140 139 138 137 136 137 137 140 143 146 150 155 150 148 148
314 268 258 274 293 320 295 274 255 270 263 263 259 263 221 225 303 319 336 329 336 341 5 29 158 164 150 145 143 142 141 139 138 139 140 140 143 146 146 146 146 147 148 148
252 260 272 271 276 275 275 270 265 257 259 260 263 267 267 273 299 313 312 304 312 324 350 46 188 163 155 149 145 142 140 140 140 141 140 139 140 142 142 145 150 151 150 151
229 261 274 275 265 266 268 267 261 257 255 254 259 264 267 273 275 280 288 298 305 317 331 173 189 170 161 153 148 146 144 143 143 141 138 138 140 145 150 150 153 152 153 154
244 264 277 268 274 295 278 267 265 260 254 254 254 260 270 269 268 272 279 291 296 303 317 238 188 177 166 158 154 152 148 146 144 141 141 141 143 150 155 158 155 157 159 157
235 232 250 273 299 259 254 342 316 304 297 288 270 261 262 266 273 271 269 279 290 292 298 211 184 178 169 161 157 154 150 149 146 147 146 149 150 154 148 152 159 163 155 156
224 234 259 240 230 277 295 295 306 309 289 292 275 262 272 260 264 263 261 276 284 279 273 199 180 172 165 162 161 157 153 152 152 151 154 156 156 162 160 162 166 164 164 160
191 214 250 243 249 262 41 163 358 322 276 27 328 313 299 251 241 256 253 315 312 295 267 177 175 167 164 164 163 158 155 156 157 159 159 155 158 162 162 164 165 168 173 160
300 212 223 247 257 262 6 7 323 226 344 322 330 320 314 282 265 283 300 300 305 294 238 170 169 166 166 165 162 160 158 159 157 156 152 156 157 158 164 165 170 172 167 166
288 302 297 261 239 262 1 318 248 332 312 299 305 297 284 291 275 276 279 290 291 278 184 168 165 165 165 164 162 162 162 158 157 151 152 153 152 152 165 170 166 172 176 171
291 258 289 246 299 288 295 257 278 278 274 284 287 280 274 271 273 276 278 281 272 243 174 167 164 163 164 164 163 162 161 160 156 151 151 152 146 146 155 167 184 182 189 183
296 310 262 307 280 294 311 301 302 298 280 283 270 256 267 268 269 269 269 258 241 206 173 165 164 164 164 164 163 162 160 160 158 155 155 152 146 147 150 162 181 186 187 183
269 345 276 259 274 310 266 320 337 327 328 346 297 263 263 265 268 254 256 226 222 195 174 164 164 165 164 164 163 164 162 159 157 158 156 151 155 148 151 153 157 164 175 175
316 328 268 284 302 317 318 337 341 340 341 7 9 352 281 263 244 237 185 160 168 165 161 163 163 160 160 162 162 166 165 163 159 158 157 152 147 146 155 155 156 152 149 156